{"data":{"norad_id":63068,"intl_designator":"2025-035S","name":"STARLINK-33627","alt_names":[],"object_type":"PAYLOAD","status":"ACTIVE","operator":null,"country":"US","launch_date":"2025-02-21","launch_site_code":"AFETR","launch_vehicle":null,"mission":null,"orbit_class":"UNKNOWN","rcs_meters":null,"size_class":null,"mass_kg":null,"dimensions":null,"purposes":["comms"],"wikipedia_slug":null,"has_3d_model":false,"image_url":null,"decayed_at":null,"tle_current":{"epoch":"2026-05-25T03:50:30.850656Z","epoch_age_seconds":55170,"freshness":"FRESH","line1":"1 63068U 25035S   26145.16007929  .00014603  00000+0  53896-3 0  9997","line2":"2 63068  42.9970  75.3171 0001148 272.3663  87.7057 15.27590712 71419","mean_motion":15.27590712,"eccentricity":0.0001148,"inclination_deg":42.997,"raan_deg":75.3171,"arg_perigee_deg":272.3663,"mean_anomaly_deg":87.7057,"bstar":0.00053896,"rev_number":7141,"period_min":94.266087682261,"perigee_km":482.2293601639,"apogee_km":483.80468112704,"semimajor_km":6861.1540206455,"source":"CELESTRAK","updated_at":"2026-05-25T13:38:19.874674Z"}}}